[Date Prev][Date Next][Thread Prev][Thread Next] - [Date Index][Thread Index][Author Index]
2 Line ISS Keps 3-2
- Subject: [sarex] 2 Line ISS Keps 3-2
- From: "Dave Larsen PhD" <doc@xxxxxxxxxxx>
- Date: Tue, 2 Mar 2004 08:19:49 -0800
ISS
1 25544U 98067A 04062.49468750 .00019192 00000-0 17626-3 0 2940
2 25544 51.6288 149.0187 0005719 231.1361 316.2391 15.67724169301570
----
Via the sarex mailing list at AMSAT.ORG courtesy of AMSAT-NA.
To unsubscribe, send "unsubscribe sarex" to Majordomo@amsat.org
AMSAT Home